Time,TemperatureF,DewpointF,PressureIn,WindDirection,WindDirectionDegrees,WindSpeedMPH,WindSpeedGustMPH,Humidity,HourlyPrecipIn,Conditions,Clouds,dailyrainin,SoftwareType,DateUTC
2013-06-21 00:01:00,70.9,63.0,30.18,ENE,63,14.0,14.0,76,0.00,,---,0.00,VWS V14.01,2013-06-21 04:01:00,
2013-06-21 00:03:00,71.0,63.4,30.18,NE,55,11.0,14.0,77,0.00,,---,0.00,VWS V14.01,2013-06-21 04:03:00,
2013-06-21 00:08:00,71.2,63.6,30.18,ENE,66,11.0,14.0,77,0.00,,---,0.00,VWS V14.01,2013-06-21 04:08:00,
2013-06-21 00:13:00,71.4,64.2,30.18,ENE,57,6.0,14.0,78,0.00,,---,0.00,VWS V14.01,2013-06-21 04:13:00,
2013-06-21 00:18:00,71.3,64.1,30.18,ENE,76,6.0,14.0,78,0.00,,---,0.00,VWS V14.01,2013-06-21 04:18:00,
2013-06-21 00:23:00,71.0,63.8,30.19,East,86,10.0,14.0,78,0.00,,---,0.00,VWS V14.01,2013-06-21 04:23:00,
2013-06-21 00:28:00,71.0,64.2,30.18,East,80,10.0,12.0,79,0.00,,---,0.00,VWS V14.01,2013-06-21 04:28:00,
2013-06-21 00:33:00,70.9,64.1,30.18,East,88,7.0,16.0,79,0.00,,---,0.00,VWS V14.01,2013-06-21 04:33:00,
2013-06-21 00:38:00,71.0,64.2,30.18,ENE,63,10.0,16.0,79,0.00,,---,0.00,VWS V14.01,2013-06-21 04:38:00,
2013-06-21 00:44:00,70.9,64.1,30.18,ENE,69,14.0,18.0,79,0.00,,---,0.00,VWS V14.01,2013-06-21 04:44:00,
2013-06-21 00:49:00,71.2,64.7,30.17,East,89,8.0,18.0,80,0.00,,---,0.00,VWS V14.01,2013-06-21 04:49:00,
2013-06-21 00:54:00,71.0,64.2,30.17,East,86,11.0,18.0,79,0.00,,---,0.00,VWS V14.01,2013-06-21 04:54:00,
2013-06-21 00:59:00,71.2,65.1,30.17,ENE,71,10.0,14.0,81,0.00,,---,0.00,VWS V14.01,2013-06-21 04:59:00,
2013-06-21 01:04:00,71.1,65.3,30.17,East,82,9.0,14.0,82,0.00,,---,0.00,VWS V14.01,2013-06-21 05:04:00,
2013-06-21 01:09:00,70.9,65.1,30.16,NE,48,10.0,14.0,82,0.00,,---,0.00,VWS V14.01,2013-06-21 05:09:00,
2013-06-21 01:14:00,70.7,65.3,30.17,ENE,58,14.0,14.0,83,0.00,,---,0.00,VWS V14.01,2013-06-21 05:14:00,
2013-06-21 01:19:00,70.5,65.1,30.17,NE,44,12.0,16.0,83,0.00,,---,0.00,VWS V14.01,2013-06-21 05:19:00,
2013-06-21 01:24:00,70.3,64.6,30.17,NE,55,10.0,16.0,82,0.00,,---,0.00,VWS V14.01,2013-06-21 05:24:00,
2013-06-21 01:29:00,70.1,64.7,30.17,NE,46,8.0,10.0,83,0.00,,---,0.00,VWS V14.01,2013-06-21 05:29:00,
2013-06-21 01:34:00,69.9,64.8,30.17,ENE,59,10.0,11.0,84,0.00,,---,0.00,VWS V14.01,2013-06-21 05:34:00,
2013-06-21 01:39:00,69.7,64.7,30.16,NE,49,11.0,15.0,84,0.00,,---,0.00,VWS V14.01,2013-06-21 05:39:00,
2013-06-21 01:44:00,69.7,64.7,30.16,NE,44,11.0,15.0,84,0.00,,---,0.00,VWS V14.01,2013-06-21 05:44:00,
2013-06-21 01:49:00,69.7,64.7,30.16,NE,47,12.0,16.0,84,0.00,,---,0.00,VWS V14.01,2013-06-21 05:49:00,
2013-06-21 01:54:00,69.5,64.5,30.16,ENE,58,12.0,16.0,84,0.00,,---,0.00,VWS V14.01,2013-06-21 05:54:00,
2013-06-21 02:00:00,69.2,64.2,30.15,NE,53,14.0,15.0,84,0.00,,---,0.00,VWS V14.01,2013-06-21 06:00:00,
2013-06-21 02:05:00,69.2,64.5,30.15,NE,47,11.0,15.0,85,0.00,,---,0.00,VWS V14.01,2013-06-21 06:05:00,
2013-06-21 02:10:00,69.1,64.4,30.15,NE,46,7.0,15.0,85,0.00,,---,0.00,VWS V14.01,2013-06-21 06:10:00,
2013-06-21 02:15:00,68.9,64.2,30.15,NE,55,10.0,15.0,85,0.00,,---,0.00,VWS V14.01,2013-06-21 06:15:00,
2013-06-21 02:20:00,68.9,64.2,30.15,NE,51,11.0,15.0,85,0.00,,---,0.00,VWS V14.01,2013-06-21 06:20:00,
2013-06-21 02:25:00,68.7,64.0,30.15,NE,42,11.0,15.0,85,0.00,,---,0.00,VWS V14.01,2013-06-21 06:25:00,
2013-06-21 02:30:00,68.7,64.3,30.15,NE,51,7.0,11.0,86,0.00,,---,0.00,VWS V14.01,2013-06-21 06:30:00,
2013-06-21 02:35:00,68.5,64.2,30.15,NE,42,7.0,11.0,86,0.00,,---,0.00,VWS V14.01,2013-06-21 06:35:00,
2013-06-21 02:40:00,68.4,64.1,30.15,NE,39,7.0,11.0,86,0.00,,---,0.00,VWS V14.01,2013-06-21 06:40:00,
2013-06-21 02:45:00,67.9,63.6,30.15,NE,42,10.0,11.0,86,0.00,,---,0.00,VWS V14.01,2013-06-21 06:45:00,
2013-06-21 02:50:00,67.7,63.7,30.15,NE,47,7.0,11.0,87,0.00,,---,0.00,VWS V14.01,2013-06-21 06:50:00,
2013-06-21 02:55:00,67.6,63.6,30.15,NE,38,7.0,11.0,87,0.00,,---,0.00,VWS V14.01,2013-06-21 06:55:00,
2013-06-21 03:00:00,67.4,63.7,30.15,NE,38,11.0,12.0,88,0.00,,---,0.00,VWS V14.01,2013-06-21 07:00:00,
2013-06-21 03:05:00,67.5,64.2,30.15,NE,44,5.0,12.0,89,0.00,,---,0.00,VWS V14.01,2013-06-21 07:05:00,
2013-06-21 03:10:00,67.4,64.1,30.15,NE,40,7.0,12.0,89,0.00,,---,0.00,VWS V14.01,2013-06-21 07:10:00,
2013-06-21 03:15:00,67.4,64.1,30.15,NE,49,11.0,12.0,89,0.00,,---,0.00,VWS V14.01,2013-06-21 07:15:00,
2013-06-21 03:20:00,67.4,64.1,30.15,NE,34,10.0,12.0,89,0.00,,---,0.00,VWS V14.01,2013-06-21 07:20:00,
2013-06-21 03:26:00,67.3,64.0,30.15,North,9,7.0,12.0,89,0.00,,---,0.00,VWS V14.01,2013-06-21 07:26:00,
2013-06-21 03:31:00,67.2,63.8,30.15,North,351,7.0,11.0,89,0.00,,---,0.00,VWS V14.01,2013-06-21 07:31:00,
2013-06-21 03:36:00,66.7,63.4,30.15,North,350,5.0,11.0,89,0.00,,---,0.00,VWS V14.01,2013-06-21 07:36:00,
2013-06-21 03:41:00,66.0,62.7,30.15,North,360,6.0,11.0,89,0.00,,---,0.00,VWS V14.01,2013-06-21 07:41:00,
2013-06-21 03:46:00,65.6,62.6,30.15,NNE,12,5.0,11.0,90,0.00,,---,0.00,VWS V14.01,2013-06-21 07:46:00,
2013-06-21 03:51:00,65.5,62.8,30.15,North,5,5.0,11.0,91,0.00,,---,0.00,VWS V14.01,2013-06-21 07:51:00,
2013-06-21 03:56:00,65.2,62.5,30.15,NNE,13,5.0,11.0,91,0.00,,---,0.00,VWS V14.01,2013-06-21 07:56:00,
2013-06-21 04:01:00,64.9,62.2,30.15,NE,37,4.0,7.0,91,0.00,,---,0.00,VWS V14.01,2013-06-21 08:01:00,
2013-06-21 04:07:00,64.9,62.5,30.15,North,9,6.0,9.0,92,0.00,,---,0.00,VWS V14.01,2013-06-21 08:07:00,
2013-06-21 04:12:00,64.8,62.4,30.15,North,5,6.0,9.0,92,0.00,,---,0.00,VWS V14.01,2013-06-21 08:12:00,
2013-06-21 04:17:00,64.7,62.3,30.15,North,360,7.0,10.0,92,0.00,,---,0.00,VWS V14.01,2013-06-21 08:17:00,
2013-06-21 04:22:00,64.5,62.4,30.15,NNE,19,6.0,11.0,93,0.00,,---,0.00,VWS V14.01,2013-06-21 08:22:00,
2013-06-21 04:27:00,64.6,62.5,30.15,North,360,8.0,8.0,93,0.00,,---,0.00,VWS V14.01,2013-06-21 08:27:00,
2013-06-21 04:33:00,64.5,62.4,30.15,NNE,32,10.0,11.0,93,0.00,,---,0.00,VWS V14.01,2013-06-21 08:33:00,
2013-06-21 04:38:00,64.5,62.4,30.15,NNE,19,9.0,12.0,93,0.00,,---,0.00,VWS V14.01,2013-06-21 08:38:00,
2013-06-21 04:43:00,64.5,62.4,30.15,NNE,18,10.0,13.0,93,0.00,,---,0.00,VWS V14.01,2013-06-21 08:43:00,
2013-06-21 04:48:00,64.5,62.7,30.15,NE,36,10.0,13.0,94,0.00,,---,0.00,VWS V14.01,2013-06-21 08:48:00,
2013-06-21 04:53:00,64.5,62.7,30.15,NNE,28,15.0,15.0,94,0.00,,---,0.00,VWS V14.01,2013-06-21 08:53:00,
2013-06-21 04:58:00,64.7,62.9,30.15,NNE,27,7.0,12.0,94,0.00,,---,0.00,VWS V14.01,2013-06-21 08:58:00,
2013-06-21 05:03:00,64.8,63.0,30.15,NNE,22,11.0,16.0,94,0.00,,---,0.00,VWS V14.01,2013-06-21 09:03:00,
2013-06-21 05:08:00,64.5,62.7,30.15,NNE,26,15.0,16.0,94,0.00,,---,0.00,VWS V14.01,2013-06-21 09:08:00,
2013-06-21 05:13:00,64.4,62.9,30.15,NE,38,12.0,16.0,95,0.00,,---,0.00,VWS V14.01,2013-06-21 09:13:00,
2013-06-21 05:18:00,64.3,62.8,30.15,NNE,22,11.0,16.0,95,0.00,,---,0.00,VWS V14.01,2013-06-21 09:18:00,
2013-06-21 05:23:00,64.5,63.0,30.15,NNE,32,15.0,17.0,95,0.00,,---,0.00,VWS V14.01,2013-06-21 09:23:00,
2013-06-21 05:28:00,64.4,62.9,30.15,NNE,16,11.0,13.0,95,0.00,,---,0.00,VWS V14.01,2013-06-21 09:28:00,
2013-06-21 05:33:00,64.5,63.0,30.15,NE,42,11.0,15.0,95,0.00,,---,0.00,VWS V14.01,2013-06-21 09:33:00,
2013-06-21 05:38:00,64.8,63.3,30.15,NNE,17,15.0,15.0,95,0.00,,---,0.00,VWS V14.01,2013-06-21 09:38:00,
2013-06-21 05:43:00,64.7,63.2,30.15,NE,49,11.0,16.0,95,0.00,,---,0.00,VWS V14.01,2013-06-21 09:43:00,
2013-06-21 05:48:00,64.9,63.4,30.15,NNE,31,15.0,17.0,95,0.00,,---,0.00,VWS V14.01,2013-06-21 09:48:00,
2013-06-21 05:53:00,65.2,64.0,30.15,NE,40,15.0,17.0,96,0.00,,---,0.00,VWS V14.01,2013-06-21 09:53:00,
2013-06-21 05:58:00,65.2,64.0,30.15,NNE,19,12.0,17.0,96,0.00,,---,0.00,VWS V14.01,2013-06-21 09:58:00,
2013-06-21 06:03:00,65.6,64.4,30.15,North,5,15.0,17.0,96,0.00,,---,0.00,VWS V14.01,2013-06-21 10:03:00,
2013-06-21 06:09:00,65.4,64.2,30.15,NNE,30,15.0,18.0,96,0.00,,---,0.00,VWS V14.01,2013-06-21 10:09:00,
2013-06-21 06:14:00,65.7,64.5,30.15,NE,38,16.0,19.0,96,0.00,,---,0.00,VWS V14.01,2013-06-21 10:14:00,
2013-06-21 06:19:00,65.7,64.5,30.15,NE,40,16.0,20.0,96,0.00,,---,0.00,VWS V14.01,2013-06-21 10:19:00,
2013-06-21 06:24:00,65.7,64.5,30.16,NE,36,14.0,20.0,96,0.00,,---,0.00,VWS V14.01,2013-06-21 10:24:00,
2013-06-21 06:29:00,65.8,64.6,30.16,NE,38,14.0,16.0,96,0.00,,---,0.00,VWS V14.01,2013-06-21 10:29:00,
2013-06-21 06:34:00,65.9,64.7,30.16,NE,38,14.0,16.0,96,0.00,,---,0.00,VWS V14.01,2013-06-21 10:34:00,
2013-06-21 06:39:00,66.2,65.0,30.16,NE,47,12.0,17.0,96,0.00,,---,0.00,VWS V14.01,2013-06-21 10:39:00,
2013-06-21 06:44:00,66.2,65.0,30.16,NNE,30,11.0,18.0,96,0.00,,---,0.00,VWS V14.01,2013-06-21 10:44:00,
2013-06-21 06:49:00,66.3,65.1,30.16,NE,40,12.0,18.0,96,0.00,,---,0.00,VWS V14.01,2013-06-21 10:49:00,
2013-06-21 06:54:00,66.2,65.0,30.16,NE,34,15.0,18.0,96,0.00,,---,0.00,VWS V14.01,2013-06-21 10:54:00,
2013-06-21 06:59:00,66.3,65.4,30.15,NE,36,12.0,15.0,97,0.00,,---,0.00,VWS V14.01,2013-06-21 10:59:00,
2013-06-21 07:04:00,66.2,65.0,30.16,NNE,28,15.0,18.0,96,0.00,,---,0.00,VWS V14.01,2013-06-21 11:04:00,
2013-06-21 07:09:00,66.4,65.5,30.16,NNE,32,16.0,19.0,97,0.00,,---,0.00,VWS V14.01,2013-06-21 11:09:00,
2013-06-21 07:15:00,66.4,65.5,30.16,NNE,24,15.0,19.0,97,0.00,,---,0.00,VWS V14.01,2013-06-21 11:15:00,
2013-06-21 07:20:00,66.3,65.4,30.17,NE,43,14.0,19.0,97,0.00,,---,0.00,VWS V14.01,2013-06-21 11:20:00,
2013-06-21 07:25:00,66.8,65.9,30.17,NE,42,10.0,19.0,97,0.00,,---,0.00,VWS V14.01,2013-06-21 11:25:00,
2013-06-21 07:30:00,66.7,65.8,30.17,NE,41,8.0,15.0,97,0.00,,---,0.00,VWS V14.01,2013-06-21 11:30:00,
2013-06-21 07:35:00,67.0,66.1,30.17,NE,47,14.0,15.0,97,0.00,,---,0.00,VWS V14.01,2013-06-21 11:35:00,
2013-06-21 07:40:00,67.0,66.1,30.17,NE,47,13.0,17.0,97,0.00,,---,0.00,VWS V14.01,2013-06-21 11:40:00,
2013-06-21 07:45:00,67.2,66.3,30.17,NE,45,13.0,17.0,97,0.00,,---,0.00,VWS V14.01,2013-06-21 11:45:00,
2013-06-21 07:50:00,67.5,66.6,30.16,NE,40,14.0,17.0,97,0.00,,---,0.00,VWS V14.01,2013-06-21 11:50:00,
2013-06-21 07:55:00,67.3,66.4,30.17,ENE,73,10.0,17.0,97,0.00,,---,0.00,VWS V14.01,2013-06-21 11:55:00,
2013-06-21 08:00:00,67.6,66.7,30.17,NE,49,11.0,16.0,97,0.00,,---,0.00,VWS V14.01,2013-06-21 12:00:00,
2013-06-21 08:05:00,67.6,66.4,30.17,NE,42,11.0,16.0,96,0.00,,---,0.00,VWS V14.01,2013-06-21 12:05:00,
2013-06-21 08:10:00,67.7,66.5,30.17,NE,44,13.0,16.0,96,0.00,,---,0.00,VWS V14.01,2013-06-21 12:10:00,
2013-06-21 08:15:00,68.0,66.8,30.17,ENE,69,12.0,16.0,96,0.00,,---,0.00,VWS V14.01,2013-06-21 12:15:00,
2013-06-21 08:20:00,68.1,66.9,30.18,NE,44,12.0,16.0,96,0.00,,---,0.00,VWS V14.01,2013-06-21 12:20:00,
2013-06-21 08:26:00,68.3,67.1,30.17,NE,40,13.0,17.0,96,0.00,,---,0.00,VWS V14.01,2013-06-21 12:26:00,
2013-06-21 08:31:00,68.7,67.5,30.18,ENE,67,13.0,16.0,96,0.00,,---,0.00,VWS V14.01,2013-06-21 12:31:00,
2013-06-21 08:36:00,68.9,67.4,30.17,NE,35,15.0,18.0,95,0.00,,---,0.00,VWS V14.01,2013-06-21 12:36:00,
2013-06-21 08:41:00,69.3,67.8,30.18,NNE,24,10.0,18.0,95,0.00,,---,0.00,VWS V14.01,2013-06-21 12:41:00,
2013-06-21 08:46:00,69.6,67.8,30.18,NNE,30,16.0,18.0,94,0.00,,---,0.00,VWS V14.01,2013-06-21 12:46:00,
2013-06-21 08:51:00,69.7,67.9,30.18,NE,49,10.0,18.0,94,0.00,,---,0.00,VWS V14.01,2013-06-21 12:51:00,
2013-06-21 08:56:00,70.0,67.9,30.18,ENE,59,12.0,19.0,93,0.00,,---,0.00,VWS V14.01,2013-06-21 12:56:00,
2013-06-21 09:01:00,70.2,68.1,30.18,NE,45,12.0,15.0,93,0.00,,---,0.00,VWS V14.01,2013-06-21 13:01:00,
2013-06-21 09:06:00,70.7,68.6,30.18,NE,45,10.0,16.0,93,0.00,,---,0.00,VWS V14.01,2013-06-21 13:06:00,
2013-06-21 09:11:00,70.8,68.4,30.18,NE,50,11.0,16.0,92,0.00,,---,0.00,VWS V14.01,2013-06-21 13:11:00,
2013-06-21 09:16:00,71.0,68.6,30.18,NE,48,14.0,16.0,92,0.00,,---,0.00,VWS V14.01,2013-06-21 13:16:00,
2013-06-21 09:22:00,71.1,68.3,30.18,ENE,63,13.0,19.0,91,0.00,,---,0.00,VWS V14.01,2013-06-21 13:22:00,
2013-06-21 09:27:00,71.5,68.7,30.17,NE,48,14.0,19.0,91,0.00,,---,0.00,VWS V14.01,2013-06-21 13:27:00,
2013-06-21 09:32:00,71.6,68.8,30.18,ENE,57,11.0,13.0,91,0.00,,---,0.00,VWS V14.01,2013-06-21 13:32:00,
2013-06-21 09:37:00,71.9,68.8,30.18,ENE,60,10.0,14.0,90,0.00,,---,0.00,VWS V14.01,2013-06-21 13:37:00,
2013-06-21 09:42:00,72.0,68.9,30.18,ENE,71,10.0,14.0,90,0.00,,---,0.00,VWS V14.01,2013-06-21 13:42:00,
2013-06-21 09:47:00,72.1,69.0,30.18,NE,55,10.0,14.0,90,0.00,,---,0.00,VWS V14.01,2013-06-21 13:47:00,
2013-06-21 09:52:00,72.3,68.9,30.17,NE,50,13.0,14.0,89,0.00,,---,0.00,VWS V14.01,2013-06-21 13:52:00,
2013-06-21 09:57:00,72.4,69.0,30.17,ENE,61,12.0,17.0,89,0.00,,---,0.00,VWS V14.01,2013-06-21 13:57:00,
2013-06-21 10:02:00,72.7,69.3,30.17,NE,55,11.0,14.0,89,0.00,,---,0.00,VWS V14.01,2013-06-21 14:02:00,
2013-06-21 10:08:00,73.0,69.6,30.17,ENE,59,12.0,14.0,89,0.00,,---,0.00,VWS V14.01,2013-06-21 14:08:00,
2013-06-21 10:13:00,73.4,69.6,30.18,ENE,64,11.0,14.0,88,0.00,,---,0.00,VWS V14.01,2013-06-21 14:13:00,
2013-06-21 10:18:00,73.6,69.5,30.17,NE,50,12.0,16.0,87,0.00,,---,0.00,VWS V14.01,2013-06-21 14:18:00,
2013-06-21 10:23:00,73.7,69.6,30.17,ENE,60,10.0,16.0,87,0.00,,---,0.00,VWS V14.01,2013-06-21 14:23:00,
2013-06-21 10:28:00,73.9,69.8,30.17,ENE,57,12.0,15.0,87,0.00,,---,0.00,VWS V14.01,2013-06-21 14:28:00,
2013-06-21 10:33:00,74.2,70.1,30.17,ENE,75,13.0,16.0,87,0.00,,---,0.00,VWS V14.01,2013-06-21 14:33:00,
2013-06-21 10:38:00,74.4,69.9,30.17,ENE,65,10.0,16.0,86,0.00,,---,0.00,VWS V14.01,2013-06-21 14:38:00,
2013-06-21 10:43:00,74.7,69.9,30.18,NE,53,11.0,16.0,85,0.00,,---,0.00,VWS V14.01,2013-06-21 14:43:00,
2013-06-21 10:48:00,74.8,70.0,30.18,NE,51,11.0,16.0,85,0.00,,---,0.00,VWS V14.01,2013-06-21 14:48:00,
2013-06-21 10:53:00,75.0,70.2,30.18,ENE,59,6.0,16.0,85,0.00,,---,0.00,VWS V14.01,2013-06-21 14:53:00,
2013-06-21 10:58:00,75.5,70.3,30.18,ENE,65,12.0,16.0,84,0.00,,---,0.00,VWS V14.01,2013-06-21 14:58:00,
2013-06-21 11:03:00,75.5,70.0,30.18,ENE,77,13.0,16.0,83,0.00,,---,0.00,VWS V14.01,2013-06-21 15:03:00,
2013-06-21 11:08:00,75.6,70.4,30.18,ENE,57,10.0,16.0,84,0.00,,---,0.00,VWS V14.01,2013-06-21 15:08:00,
2013-06-21 11:13:00,75.5,70.0,30.18,ENE,62,10.0,16.0,83,0.00,,---,0.00,VWS V14.01,2013-06-21 15:13:00,
2013-06-21 11:18:00,75.8,70.6,30.18,East,89,13.0,16.0,84,0.00,,---,0.00,VWS V14.01,2013-06-21 15:18:00,
2013-06-21 11:24:00,76.1,70.6,30.17,ENE,67,9.0,16.0,83,0.00,,---,0.00,VWS V14.01,2013-06-21 15:24:00,
2013-06-21 11:29:00,76.4,70.9,30.18,ENE,66,12.0,15.0,83,0.00,,---,0.00,VWS V14.01,2013-06-21 15:29:00,
2013-06-21 11:34:00,76.8,70.9,30.18,ENE,61,13.0,16.0,82,0.00,,---,0.00,VWS V14.01,2013-06-21 15:34:00,
2013-06-21 11:39:00,76.8,70.9,30.18,ENE,67,12.0,17.0,82,0.00,,---,0.00,VWS V14.01,2013-06-21 15:39:00,
2013-06-21 11:44:00,77.1,70.8,30.18,ENE,57,8.0,17.0,81,0.00,,---,0.00,VWS V14.01,2013-06-21 15:44:00,
2013-06-21 11:49:00,77.2,70.9,30.18,ENE,65,13.0,17.0,81,0.00,,---,0.00,VWS V14.01,2013-06-21 15:49:00,
2013-06-21 11:54:00,77.7,71.4,30.18,ENE,58,11.0,17.0,81,0.00,,---,0.00,VWS V14.01,2013-06-21 15:54:00,
2013-06-21 11:59:00,78.4,72.1,30.18,ESE,123,14.0,17.0,81,0.00,,---,0.00,VWS V14.01,2013-06-21 15:59:00,
2013-06-21 12:04:00,79.6,72.5,30.18,ESE,110,18.0,19.0,79,0.00,,---,0.00,VWS V14.01,2013-06-21 16:04:00,
2013-06-21 12:10:00,80.4,72.9,30.18,ENE,72,10.0,19.0,78,0.00,,---,0.00,VWS V14.01,2013-06-21 16:10:00,
2013-06-21 12:15:00,80.5,72.6,30.18,ESE,107,13.0,19.0,77,0.00,,---,0.00,VWS V14.01,2013-06-21 16:15:00,
2013-06-21 12:20:00,80.7,72.8,30.18,East,93,11.0,19.0,77,0.00,,---,0.00,VWS V14.01,2013-06-21 16:20:00,
2013-06-21 12:25:00,80.6,72.7,30.18,East,97,14.0,19.0,77,0.00,,---,0.00,VWS V14.01,2013-06-21 16:25:00,
2013-06-21 12:30:00,80.8,73.3,30.18,East,98,13.0,17.0,78,0.00,,---,0.00,VWS V14.01,2013-06-21 16:30:00,
2013-06-21 12:35:00,80.5,73.0,30.18,ESE,109,14.0,18.0,78,0.00,,---,0.00,VWS V14.01,2013-06-21 16:35:00,
2013-06-21 12:41:00,80.5,73.0,30.18,ESE,110,10.0,18.0,78,0.00,,---,0.00,VWS V14.01,2013-06-21 16:41:00,
2013-06-21 12:46:00,80.5,73.0,30.18,ESE,110,12.0,18.0,78,0.00,,---,0.00,VWS V14.01,2013-06-21 16:46:00,
2013-06-21 12:51:00,80.4,72.9,30.18,ESE,107,11.0,18.0,78,0.00,,---,0.00,VWS V14.01,2013-06-21 16:51:00,
2013-06-21 12:56:00,80.2,72.7,30.18,ESE,116,11.0,18.0,78,0.00,,---,0.00,VWS V14.01,2013-06-21 16:56:00,
2013-06-21 13:01:00,80.2,73.1,30.18,ESE,115,12.0,15.0,79,0.00,,---,0.00,VWS V14.01,2013-06-21 17:01:00,
2013-06-21 13:06:00,80.0,72.5,30.17,ESE,103,15.0,17.0,78,0.00,,---,0.00,VWS V14.01,2013-06-21 17:06:00,
2013-06-21 13:12:00,80.4,72.9,30.17,ESE,107,14.0,17.0,78,0.00,,---,0.00,VWS V14.01,2013-06-21 17:12:00,
2013-06-21 13:18:00,80.4,72.9,30.17,East,86,9.0,17.0,78,0.00,,---,0.00,VWS V14.01,2013-06-21 17:18:00,
2013-06-21 13:23:00,80.6,73.1,30.17,ESE,111,11.0,19.0,78,0.00,,---,0.00,VWS V14.01,2013-06-21 17:23:00,
2013-06-21 13:28:00,80.8,73.3,30.16,ESE,105,15.0,16.0,78,0.00,,---,0.00,VWS V14.01,2013-06-21 17:28:00,
2013-06-21 13:33:00,81.1,73.2,30.16,ESE,108,11.0,20.0,77,0.00,,---,0.00,VWS V14.01,2013-06-21 17:33:00,
2013-06-21 13:38:00,81.3,73.8,30.16,ESE,107,12.0,20.0,78,0.00,,---,0.00,VWS V14.01,2013-06-21 17:38:00,
2013-06-21 13:43:00,81.6,74.1,30.16,ESE,110,15.0,20.0,78,0.00,,---,0.00,VWS V14.01,2013-06-21 17:43:00,
2013-06-21 13:46:00,81.7,73.8,30.17,East,101,12.0,20.0,77,0.00,,---,0.00,VWS V14.01,2013-06-21 17:46:00,
2013-06-21 13:47:00,81.7,73.4,30.16,ESE,105,11.0,20.0,76,0.00,,---,0.00,VWS V14.01,2013-06-21 17:47:00,
2013-06-21 13:48:00,81.7,73.4,30.16,East,100,17.0,20.0,76,0.00,,---,0.00,VWS V14.01,2013-06-21 17:48:00,
2013-06-21 13:49:00,81.7,73.8,30.16,East,82,8.0,20.0,77,0.00,,---,0.00,VWS V14.01,2013-06-21 17:49:00,
2013-06-21 13:54:00,81.8,73.5,30.16,SE,127,6.0,20.0,76,0.00,,---,0.00,VWS V14.01,2013-06-21 17:54:00,
2013-06-21 14:00:00,82.1,73.8,30.16,East,89,13.0,16.0,76,0.00,,---,0.00,VWS V14.01,2013-06-21 18:00:00,
2013-06-21 14:05:00,81.8,73.5,30.16,East,80,12.0,16.0,76,0.00,,---,0.00,VWS V14.01,2013-06-21 18:05:00,
2013-06-21 14:10:00,81.6,73.3,30.16,East,98,16.0,20.0,76,0.00,,---,0.00,VWS V14.01,2013-06-21 18:10:00,
2013-06-21 14:15:00,81.8,73.9,30.16,ESE,118,16.0,20.0,77,0.00,,---,0.00,VWS V14.01,2013-06-21 18:15:00,
2013-06-21 14:20:00,82.1,73.8,30.16,ESE,117,11.0,20.0,76,0.00,,---,0.00,VWS V14.01,2013-06-21 18:20:00,
2013-06-21 14:23:00,82.0,73.3,30.16,ESE,102,14.0,20.0,75,0.00,,---,0.00,VWS V14.01,2013-06-21 18:23:00,
2013-06-21 14:24:00,82.0,73.3,30.16,ESE,121,15.0,20.0,75,0.00,,---,0.00,VWS V14.01,2013-06-21 18:24:00,
2013-06-21 14:25:00,82.0,73.3,30.16,ESE,117,10.0,20.0,75,0.00,,---,0.00,VWS V14.01,2013-06-21 18:25:00,
2013-06-21 14:27:00,82.1,73.8,30.16,East,96,14.0,20.0,76,0.00,,---,0.00,VWS V14.01,2013-06-21 18:27:00,
2013-06-21 14:32:00,82.0,73.7,30.16,ESE,113,16.0,17.0,76,0.00,,---,0.00,VWS V14.01,2013-06-21 18:32:00,
2013-06-21 14:37:00,81.8,73.5,30.16,East,101,12.0,17.0,76,0.00,,---,0.00,VWS V14.01,2013-06-21 18:37:00,
2013-06-21 14:42:00,82.0,73.7,30.16,ESE,107,15.0,17.0,76,0.00,,---,0.00,VWS V14.01,2013-06-21 18:42:00,
2013-06-21 14:45:00,82.0,73.7,30.16,SE,127,11.0,19.0,76,0.00,,---,0.00,VWS V14.01,2013-06-21 18:45:00,
2013-06-21 14:46:00,82.0,74.1,30.16,ESE,103,11.0,19.0,77,0.00,,---,0.00,VWS V14.01,2013-06-21 18:46:00,
2013-06-21 14:51:00,82.0,74.1,30.16,SE,124,15.0,19.0,77,0.00,,---,0.00,VWS V14.01,2013-06-21 18:51:00,
2013-06-21 14:56:00,81.8,73.9,30.16,ESE,121,17.0,20.0,77,0.00,,---,0.00,VWS V14.01,2013-06-21 18:56:00,
2013-06-21 15:01:00,81.0,73.5,30.16,ESE,102,7.0,17.0,78,0.00,,---,0.00,VWS V14.01,2013-06-21 19:01:00,
2013-06-21 15:06:00,80.7,73.2,30.16,ESE,109,10.0,20.0,78,0.00,,---,0.00,VWS V14.01,2013-06-21 19:06:00,
2013-06-21 15:11:00,80.3,73.6,30.16,ESE,107,15.0,20.0,80,0.00,,---,0.00,VWS V14.01,2013-06-21 19:11:00,
2013-06-21 15:17:00,80.2,73.8,30.16,ESE,107,11.0,20.0,81,0.00,,---,0.00,VWS V14.01,2013-06-21 19:17:00,
2013-06-21 15:20:00,80.2,73.8,30.16,East,97,16.0,22.0,81,0.00,,---,0.00,VWS V14.01,2013-06-21 19:20:00,
2013-06-21 15:25:00,80.1,73.4,30.16,ESE,114,16.0,23.0,80,0.00,,---,0.00,VWS V14.01,2013-06-21 19:25:00,
2013-06-21 15:30:00,80.2,73.8,30.16,ESE,119,14.0,19.0,81,0.00,,---,0.00,VWS V14.01,2013-06-21 19:30:00,
2013-06-21 15:35:00,80.2,73.5,30.16,ESE,115,21.0,23.0,80,0.00,,---,0.00,VWS V14.01,2013-06-21 19:35:00,
2013-06-21 15:40:00,80.0,73.7,30.16,East,101,9.0,23.0,81,0.00,,---,0.00,VWS V14.01,2013-06-21 19:40:00,
2013-06-21 15:42:00,79.9,73.6,30.16,ESE,117,14.0,23.0,81,0.00,,---,0.00,VWS V14.01,2013-06-21 19:42:00,
2013-06-21 15:47:00,80.3,74.3,30.16,ESE,111,12.0,23.0,82,0.00,,---,0.00,VWS V14.01,2013-06-21 19:47:00,
2013-06-21 15:52:00,80.7,74.7,30.15,SE,127,17.0,23.0,82,0.00,,---,0.00,VWS V14.01,2013-06-21 19:52:00,
2013-06-21 15:57:00,80.6,74.6,30.16,SE,125,17.0,23.0,82,0.00,,---,0.00,VWS V14.01,2013-06-21 19:57:00,
2013-06-21 16:02:00,80.4,74.4,30.15,SE,128,17.0,25.0,82,0.00,,---,0.00,VWS V14.01,2013-06-21 20:02:00,
2013-06-21 16:06:00,80.4,74.4,30.15,ESE,119,8.0,25.0,82,0.00,,---,0.00,VWS V14.01,2013-06-21 20:06:00,
2013-06-21 16:10:00,80.4,74.4,30.15,ESE,117,16.0,25.0,82,0.00,,---,0.00,VWS V14.01,2013-06-21 20:10:00,
2013-06-21 16:13:00,80.5,74.5,30.15,SE,138,9.0,25.0,82,0.00,,---,0.00,VWS V14.01,2013-06-21 20:13:00,
2013-06-21 16:17:00,80.6,74.6,30.15,ESE,105,16.0,25.0,82,0.00,,---,0.00,VWS V14.01,2013-06-21 20:17:00,
2013-06-21 16:22:00,80.3,74.3,30.15,SE,142,7.0,25.0,82,0.00,,---,0.00,VWS V14.01,2013-06-21 20:22:00,
2013-06-21 16:27:00,80.1,74.5,30.14,SE,128,10.0,25.0,83,0.00,,---,0.00,VWS V14.01,2013-06-21 20:27:00,
2013-06-21 16:32:00,79.9,74.6,30.15,ESE,111,11.0,20.0,84,0.00,,---,0.00,VWS V14.01,2013-06-21 20:32:00,
2013-06-21 16:38:00,79.8,74.5,30.14,SE,130,22.0,23.0,84,0.00,,---,0.00,VWS V14.01,2013-06-21 20:38:00,
2013-06-21 16:43:00,79.8,74.2,30.14,ESE,122,13.0,24.0,83,0.00,,---,0.00,VWS V14.01,2013-06-21 20:43:00,
2013-06-21 16:48:00,79.5,74.2,30.14,SE,140,12.0,24.0,84,0.00,,---,0.00,VWS V14.01,2013-06-21 20:48:00,
2013-06-21 16:53:00,79.3,74.1,30.14,SE,125,13.0,24.0,84,0.00,,---,0.00,VWS V14.01,2013-06-21 20:53:00,
2013-06-21 16:59:00,79.0,73.8,30.14,SE,126,10.0,16.0,84,0.00,,---,0.00,VWS V14.01,2013-06-21 20:59:00,
2013-06-21 17:04:00,78.9,73.7,30.13,ESE,105,11.0,16.0,84,0.00,,---,0.00,VWS V14.01,2013-06-21 21:04:00,
2013-06-21 17:05:00,78.9,73.7,30.13,SE,138,11.0,16.0,84,0.00,,---,0.00,VWS V14.01,2013-06-21 21:05:00,
2013-06-21 17:10:00,78.9,73.3,30.13,SE,124,14.0,17.0,83,0.00,,---,0.00,VWS V14.01,2013-06-21 21:10:00,
2013-06-21 17:15:00,79.0,73.8,30.13,SE,126,11.0,17.0,84,0.00,,---,0.00,VWS V14.01,2013-06-21 21:15:00,
2013-06-21 17:20:00,78.9,73.3,30.13,ESE,121,14.0,17.0,83,0.00,,---,0.00,VWS V14.01,2013-06-21 21:20:00,
2013-06-21 17:25:00,78.7,72.8,30.13,SSE,148,11.0,18.0,82,0.00,,---,0.00,VWS V14.01,2013-06-21 21:25:00,
2013-06-21 17:30:00,78.5,72.6,30.13,SE,135,9.0,15.0,82,0.00,,---,0.00,VWS V14.01,2013-06-21 21:30:00,
2013-06-21 17:35:00,78.7,72.4,30.14,SE,134,12.0,15.0,81,0.00,,---,0.00,VWS V14.01,2013-06-21 21:35:00,
2013-06-21 17:41:00,78.9,72.2,30.14,SE,124,10.0,15.0,80,0.00,,---,0.00,VWS V14.01,2013-06-21 21:41:00,
2013-06-21 17:46:00,78.9,72.2,30.14,SE,136,10.0,15.0,80,0.00,,---,0.00,VWS V14.01,2013-06-21 21:46:00,
2013-06-21 17:51:00,79.0,72.3,30.14,SE,134,4.0,15.0,80,0.00,,---,0.00,VWS V14.01,2013-06-21 21:51:00,
2013-06-21 17:56:00,79.4,73.1,30.14,SSE,157,2.0,15.0,81,0.00,,---,0.00,VWS V14.01,2013-06-21 21:56:00,
2013-06-21 18:01:00,79.7,73.0,30.14,SE,137,4.0,9.0,80,0.00,,---,0.00,VWS V14.01,2013-06-21 22:01:00,
2013-06-21 18:06:00,80.1,73.8,30.13,SSE,161,7.0,11.0,81,0.00,,---,0.00,VWS V14.01,2013-06-21 22:06:00,
2013-06-21 18:11:00,80.1,73.8,30.13,SE,129,1.0,11.0,81,0.00,,---,0.00,VWS V14.01,2013-06-21 22:11:00,
2013-06-21 18:16:00,80.2,73.8,30.13,SE,138,6.0,11.0,81,0.00,,---,0.00,VWS V14.01,2013-06-21 22:16:00,
2013-06-21 18:21:00,80.1,73.8,30.14,ESE,123,6.0,11.0,81,0.00,,---,0.00,VWS V14.01,2013-06-21 22:21:00,
2013-06-21 18:26:00,79.5,73.5,30.14,SE,124,3.0,11.0,82,0.00,,---,0.00,VWS V14.01,2013-06-21 22:26:00,
2013-06-21 18:31:00,79.1,73.5,30.14,ESE,115,6.0,7.0,83,0.00,,---,0.00,VWS V14.01,2013-06-21 22:31:00,
2013-06-21 18:36:00,78.7,73.5,30.14,ESE,121,3.0,9.0,84,0.00,,---,0.00,VWS V14.01,2013-06-21 22:36:00,
2013-06-21 18:41:00,78.4,73.2,30.14,SE,137,5.0,9.0,84,0.00,,---,0.00,VWS V14.01,2013-06-21 22:41:00,
2013-06-21 18:47:00,78.3,73.4,30.14,SE,134,9.0,11.0,85,0.00,,---,0.00,VWS V14.01,2013-06-21 22:47:00,
2013-06-21 18:52:00,78.0,73.1,30.14,SE,130,8.0,12.0,85,0.00,,---,0.00,VWS V14.01,2013-06-21 22:52:00,
2013-06-21 18:57:00,77.7,72.8,30.14,SE,130,10.0,12.0,85,0.00,,---,0.00,VWS V14.01,2013-06-21 22:57:00,
2013-06-21 19:02:00,77.5,73.0,30.14,SE,131,5.0,10.0,86,0.00,,---,0.00,VWS V14.01,2013-06-21 23:02:00,
2013-06-21 19:07:00,77.3,72.8,30.13,SE,130,8.0,11.0,86,0.00,,---,0.00,VWS V14.01,2013-06-21 23:07:00,
2013-06-21 19:12:00,77.3,72.8,30.14,SE,132,4.0,11.0,86,0.00,,---,0.00,VWS V14.01,2013-06-21 23:12:00,
2013-06-21 19:17:00,77.2,73.0,30.14,East,101,6.0,11.0,87,0.00,,---,0.00,VWS V14.01,2013-06-21 23:17:00,
2013-06-21 19:22:00,77.3,73.1,30.14,SE,129,4.0,11.0,87,0.00,,---,0.00,VWS V14.01,2013-06-21 23:22:00,
2013-06-21 19:27:00,77.3,73.1,30.14,ESE,106,4.0,11.0,87,0.00,,---,0.00,VWS V14.01,2013-06-21 23:27:00,
2013-06-21 19:32:00,77.3,73.1,30.13,ESE,111,3.0,9.0,87,0.00,,---,0.00,VWS V14.01,2013-06-21 23:32:00,
2013-06-21 19:37:00,77.3,73.1,30.13,SE,129,0.0,9.0,87,0.00,,---,0.00,VWS V14.01,2013-06-21 23:37:00,
2013-06-21 19:43:00,77.2,72.7,30.13,SE,126,7.0,9.0,86,0.00,,---,0.00,VWS V14.01,2013-06-21 23:43:00,
2013-06-21 19:48:00,77.1,72.6,30.13,ESE,118,9.0,11.0,86,0.00,,---,0.00,VWS V14.01,2013-06-21 23:48:00,
2013-06-21 19:53:00,77.1,72.9,30.14,SE,137,9.0,12.0,87,0.00,,---,0.00,VWS V14.01,2013-06-21 23:53:00,
2013-06-21 19:58:00,76.9,72.7,30.14,ESE,121,10.0,11.0,87,0.00,,---,0.00,VWS V14.01,2013-06-21 23:58:00,
2013-06-21 20:03:00,76.9,72.7,30.14,SE,134,11.0,12.0,87,0.00,,---,0.00,VWS V14.01,2013-06-22 00:03:00,
2013-06-21 20:08:00,76.8,72.6,30.14,ESE,119,10.0,13.0,87,0.00,,---,0.00,VWS V14.01,2013-06-22 00:08:00,
2013-06-21 20:13:00,76.8,72.6,30.14,SE,126,3.0,13.0,87,0.00,,---,0.00,VWS V14.01,2013-06-22 00:13:00,
2013-06-21 20:18:00,76.8,73.0,30.14,SE,128,10.0,13.0,88,0.00,,---,0.00,VWS V14.01,2013-06-22 00:18:00,
2013-06-21 20:23:00,76.8,73.0,30.14,SE,126,7.0,13.0,88,0.00,,---,0.00,VWS V14.01,2013-06-22 00:23:00,
2013-06-21 20:28:00,76.7,72.9,30.14,ESE,121,4.0,5.0,88,0.00,,---,0.00,VWS V14.01,2013-06-22 00:28:00,
2013-06-21 20:33:00,76.6,72.8,30.14,ESE,119,4.0,10.0,88,0.00,,---,0.00,VWS V14.01,2013-06-22 00:33:00,
2013-06-21 20:38:00,76.7,72.9,30.13,ESE,102,9.0,11.0,88,0.00,,---,0.00,VWS V14.01,2013-06-22 00:38:00,
2013-06-21 20:43:00,76.6,72.8,30.14,ESE,109,6.0,13.0,88,0.00,,---,0.00,VWS V14.01,2013-06-22 00:43:00,
2013-06-21 20:48:00,76.5,72.7,30.14,ESE,114,5.0,13.0,88,0.00,,---,0.00,VWS V14.01,2013-06-22 00:48:00,
2013-06-21 20:53:00,76.6,72.8,30.14,ESE,104,9.0,13.0,88,0.00,,---,0.00,VWS V14.01,2013-06-22 00:53:00,
2013-06-21 20:59:00,76.6,72.8,30.14,ESE,112,4.0,7.0,88,0.00,,---,0.00,VWS V14.01,2013-06-22 00:59:00,
2013-06-21 21:04:00,76.6,72.8,30.14,ESE,111,7.0,12.0,88,0.00,,---,0.00,VWS V14.01,2013-06-22 01:04:00,
2013-06-21 21:09:00,76.6,72.8,30.13,ESE,111,11.0,12.0,88,0.00,,---,0.00,VWS V14.01,2013-06-22 01:09:00,
2013-06-21 21:14:00,76.6,72.8,30.14,ESE,111,14.0,14.0,88,0.00,,---,0.00,VWS V14.01,2013-06-22 01:14:00,
2013-06-21 21:19:00,76.5,72.7,30.13,ESE,103,9.0,14.0,88,0.00,,---,0.00,VWS V14.01,2013-06-22 01:19:00,
2013-06-21 21:24:00,76.4,72.9,30.14,East,94,11.0,14.0,89,0.00,,---,0.00,VWS V14.01,2013-06-22 01:24:00,
2013-06-21 21:29:00,76.4,72.9,30.14,East,96,9.0,11.0,89,0.00,,---,0.00,VWS V14.01,2013-06-22 01:29:00,
2013-06-21 21:34:00,76.4,72.9,30.14,ESE,106,9.0,11.0,89,0.00,,---,0.00,VWS V14.01,2013-06-22 01:34:00,
2013-06-21 21:39:00,76.4,72.9,30.14,East,100,4.0,13.0,89,0.00,,---,0.00,VWS V14.01,2013-06-22 01:39:00,
2013-06-21 21:44:00,76.3,72.8,30.14,East,96,11.0,14.0,89,0.00,,---,0.00,VWS V14.01,2013-06-22 01:44:00,
2013-06-21 21:49:00,76.3,72.8,30.14,ESE,102,14.0,15.0,89,0.00,,---,0.00,VWS V14.01,2013-06-22 01:49:00,
2013-06-21 21:54:00,76.4,72.9,30.14,ESE,111,10.0,15.0,89,0.00,,---,0.00,VWS V14.01,2013-06-22 01:54:00,
2013-06-21 21:59:00,76.4,72.9,30.15,ESE,107,9.0,15.0,89,0.00,,---,0.00,VWS V14.01,2013-06-22 01:59:00,
2013-06-21 22:05:00,76.4,72.9,30.15,SE,125,10.0,15.0,89,0.00,,---,0.00,VWS V14.01,2013-06-22 02:05:00,
2013-06-21 22:10:00,76.5,73.0,30.15,ESE,106,11.0,15.0,89,0.00,,---,0.00,VWS V14.01,2013-06-22 02:10:00,
2013-06-21 22:15:00,76.6,73.4,30.15,ESE,107,11.0,15.0,90,0.00,,---,0.00,VWS V14.01,2013-06-22 02:15:00,
2013-06-21 22:20:00,76.6,73.4,30.15,ESE,109,6.0,15.0,90,0.00,,---,0.00,VWS V14.01,2013-06-22 02:20:00,
2013-06-21 22:25:00,76.5,73.3,30.15,ESE,111,8.0,15.0,90,0.00,,---,0.00,VWS V14.01,2013-06-22 02:25:00,
2013-06-21 22:30:00,76.6,73.4,30.15,ESE,107,4.0,13.0,90,0.00,,---,0.00,VWS V14.01,2013-06-22 02:30:00,
2013-06-21 22:35:00,76.6,73.4,30.16,ESE,105,12.0,14.0,90,0.00,,---,0.00,VWS V14.01,2013-06-22 02:35:00,
2013-06-21 22:40:00,76.7,73.6,30.15,ESE,116,6.0,14.0,90,0.00,,---,0.00,VWS V14.01,2013-06-22 02:40:00,
2013-06-21 22:45:00,76.9,73.8,30.16,ESE,114,7.0,14.0,90,0.00,,---,0.00,VWS V14.01,2013-06-22 02:45:00,
2013-06-21 22:50:00,76.7,73.6,30.15,East,98,12.0,15.0,90,0.00,,---,0.00,VWS V14.01,2013-06-22 02:50:00,
2013-06-21 22:55:00,76.8,73.7,30.15,SE,146,11.0,15.0,90,0.00,,---,0.00,VWS V14.01,2013-06-22 02:55:00,
2013-06-21 23:00:00,77.0,73.8,30.15,ESE,103,7.0,13.0,90,0.00,,---,0.00,VWS V14.01,2013-06-22 03:00:00,
2013-06-21 23:05:00,77.0,73.8,30.15,ESE,106,12.0,17.0,90,0.00,,---,0.00,VWS V14.01,2013-06-22 03:05:00,
2013-06-21 23:10:00,77.0,73.8,30.15,ESE,104,11.0,17.0,90,0.00,,---,0.00,VWS V14.01,2013-06-22 03:10:00,
2013-06-21 23:15:00,77.1,73.9,30.15,ESE,115,10.0,17.0,90,0.00,,---,0.00,VWS V14.01,2013-06-22 03:15:00,
2013-06-21 23:20:00,77.1,73.9,30.15,ESE,109,14.0,18.0,90,0.00,,---,0.00,VWS V14.01,2013-06-22 03:20:00,
2013-06-21 23:26:00,77.1,74.3,30.15,East,101,12.0,18.0,91,0.00,,---,0.00,VWS V14.01,2013-06-22 03:26:00,
2013-06-21 23:31:00,76.9,73.8,30.15,ESE,121,9.0,16.0,90,0.00,,---,0.00,VWS V14.01,2013-06-22 03:31:00,
2013-06-21 23:36:00,76.9,73.8,30.15,SE,132,17.0,17.0,90,0.00,,---,0.00,VWS V14.01,2013-06-22 03:36:00,
2013-06-21 23:41:00,77.0,73.8,30.15,SE,131,8.0,20.0,90,0.00,,---,0.00,VWS V14.01,2013-06-22 03:41:00,
2013-06-21 23:46:00,77.2,74.0,30.15,SE,126,12.0,20.0,90,0.00,,---,0.00,VWS V14.01,2013-06-22 03:46:00,
2013-06-21 23:51:00,77.3,73.8,30.14,SE,136,11.0,20.0,89,0.00,,---,0.00,VWS V14.01,2013-06-22 03:51:00,
2013-06-21 23:56:00,77.4,73.9,30.14,SE,126,10.0,20.0,89,0.00,,---,0.00,VWS V14.01,2013-06-22 03:56:00,